Regional Weather Roundup
Issued by NWS Portland, ME

Home | Current Version | Previous Version | Text Only | Print | Product List | Glossary On
Versions: 1 2 3 4 5 6 7 8 9 10 11 12 13 14 15 16 17 18 19 20 21 22 23 24 25 26 27 28 29 30 31 32 33 34 35 36 37 38 39 40 41 42 43 44 45 46 47 48 49 50
000
ASUS41 KGYX 010710
RWRGYX
WEATHER ROUNDUP FOR MAINE AND NEW HAMPSHIRE
NATIONAL WEATHER SERVICE GRAY ME
300 AM EDT TUE SEP 01 2015

MEZ002-005-006-010-012-015-018-020-021-024-026-027-029-010800-
MAINE

CITY           SKY/WX    TMP DP  RH WIND       PRES   REMARKS
PORTLAND       CLEAR     64  59  83 W3        29.96R
SANFORD        CLEAR     55  52  88 CALM      29.97R
BAR HARBOR     CLEAR     64  59  82 CALM      29.91S
WISCASSET      PTCLDY    67  60  78 CALM      29.96R
ROCKLAND       CLEAR     63  57  82 W5        29.92R
FRYEBURG       CLEAR     58  58 100 E3        29.97S
LEWISTONAUBURN CLEAR     63 N/A N/A NW7       29.96S
AUGUSTA        CLEAR     63  59  87 N6        29.96R
WATERVILLE     CLEAR     61  55  82 CALM      29.93S
BANGOR         CLEAR     60  56  86 W6        29.93S
GREENVILLE       N/A     56  53  90 CALM      29.95S
MILLINOCKET    CLEAR     60  53  77 CALM      29.93S
HOULTON        CLEAR     59  53  80 NW5       29.89S
PRESQUE ISLE   CLEAR     59  46  63 NW7       29.91R
FRENCHVILLE    CLEAR     55  48  77 NW15      29.94R
CARIBOU        CLEAR     57  49  74 NW6       29.92R
$$

NHZ002-005-008-009-011-012-014-010800-
NEW HAMPSHIRE

CITY           SKY/WX    TMP DP  RH WIND       PRES   REMARKS
PORTSMOUTH     PTCLDY    66  62  87 W7        29.95S
ROCHESTER      PTCLDY    62  58  86 CALM      29.97R
NASHUA         FAIR      66  61  84 NW6       29.99R
MANCHESTER     PTCLDY    68  61  78 SW5       29.97S
CONCORD        PTCLDY    62  59  90 CALM      29.99S
LACONIA        PTCLDY    64  57  77 CALM      29.98S
PLYMOUTH       FAIR      63  60  90 CALM      29.98S
BERLIN         CLEAR     58  55  90 CALM      30.00S
WHITEFIELD     MOCLDY    56  54  93 CALM      30.01S FOG
JAFFREY        PTCLDY    60  58  92 CALM      30.03S FOG
KEENE          CLEAR     61  55  82 CALM      30.02S VSB 1
LEBANON        CLEAR     59  56  89 S3        30.00S FOG
MT WASHINGTON  MOCLDY    52  14  22 NW41        N/A
$$

VTZ005-007-008-010800-
VERMONT

CITY           SKY/WX    TMP DP  RH WIND       PRES   REMARKS
ST JOHNSBURY     N/A     58  56  93 MISG      29.99S
MONTPELIER     PTCLDY    58  56  93 CALM      30.06R FOG
BURLINGTON     CLEAR     62  59  90 CALM      30.00S FOG
$$

MAZ007-012-024-CTZ003-RIZ002-NYZ038-NYZ072-010800-
SOUTHERN NEW ENGLAND AND NY

CITY           SKY/WX    TMP DP  RH WIND       PRES   REMARKS
BOSTON         PTCLDY    74  62  66 NW9       29.97S
WORCESTER      CLEAR     70  60  70 NW7       30.02S
NANTUCKET      CLEAR     74  68  81 NW10      29.95S
PROVIDENCE     CLEAR     73  62  68 NW5       29.98S
HARTFORD       CLEAR     68  62  81 CALM      29.99R
ALBANY         CLEAR     65  62  90 CALM      30.02S
NEW YORK CITY  PTCLDY    80  67  64 W3        29.99S
$$

ANZ081-ANZ082-ANZ150-NHZ014-MEZ023>029-010800-
COASTAL MARINE OBSERVATIONS

STATION/POSITION TIME  TEMP    WIND        PRES    WAVE
                       AIR SEA DIR/SP/G            HT/PER
                 (UTC) (F)     (DEG/KT/KT) (MB)    (FT/S)
MOUNT DESERT ROC 0700   65     310/ 15/ 15 1012.6R
MATINICUS ROCK   0700          320/ 15/ 16 1012.8R
ISLE OF SHOALS   0700   69     280/ 11/ 11 1013.8R
JEFFREYS LEDGE   0603      69                N/A     1/10
CASHES LEDGE BUO 0650   69                 1013.1R   2/ 9
GEORGES BANK BUO 0650   69 67  300/ 16/ 17 1011.7R   4/ 7
$$

.............KEY..............
   WCI - WIND CHILL
   TC  - TEMPERATURE IN CELSIUS
   VSB - VISIBILITY IN MILES
   HX  - HEAT INDEX
   FAIR- INDICATES FEW OR NO CLOUDS BELOW 12,000 FT, WITH NO
         SIGNIFICANT WEATHER AND/OR OBSTRUCTIONS TO VISIBILITY.





USA.gov is the U.S. government's official web portal to all federal, state and local government web resources and services.